Temp
72 72 70 70 69 70 70 70 70 70 69 70 69 69 69 69 70 69 68 69 69 69 68 68 68 68 69 70 70 71 72 71 72 73 72 72 71 72 71 71 72 72
70 70 70 70 70 70 69 69 68 68 68 68 69 69 69 69 69 68 67 67 68 67 67 67 67 68 68 69 69 70 70 70 70 71 71 71 71 71 70 70 71 71
69 68 68 68 68 68 68 68 67 68 68 68 68 68 67 67 67 67 67 66 67 66 65 65 66 67 67 67 68 69 69 69 69 71 71 70 70 70 70 69 68 68
68 68 68 68 68 67 67 67 68 68 68 67 66 67 67 66 66 66 67 67 66 65 65 65 66 67 67 68 68 69 70 68 68 68 68 68 68 67 66 67 67 67
67 68 69 68 68 68 68 67 66 66 66 66 66 66 66 66 66 66 66 66 66 65 65 66 66 66 67 67 68 67 66 66 67 67 67 66 66 66 66 66 66 65
67 69 69 67 67 66 66 66 65 66 66 65 63 64 65 65 66 66 66 65 65 66 66 67 66 66 67 67 67 66 65 66 67 67 66 66 66 66 65 65 64 64
66 66 65 66 65 65 65 65 66 65 64 64 64 63 65 65 65 66 67 67 68 67 67 68 68 66 67 67 67 66 66 65 65 66 65 65 65 64 65 64 64 63
64 65 65 65 65 65 64 64 64 63 64 64 63 63 64 65 66 67 69 72 71 70 70 70 70 68 67 67 66 65 65 65 65 65 64 64 63 63 64 63 63 63
64 63 63 63 64 64 63 63 62 63 64 63 63 63 64 65 66 68 69 71 71 70 69 69 69 69 67 66 65 65 66 65 64 65 63 63 63 63 63 63 63 62
62 61 62 63 62 61 61 61 62 62 63 62 63 64 64 65 67 69 70 71 71 69 69 68 68 67 67 66 65 65 65 65 65 65 64 63 64 63 62 62 61 60
60 62 62 61 60 60 60 61 61 62 63 64 64 64 65 65 66 68 69 70 68 74 68 66 66 67 67 66 66 66 65 65 65 66 65 65 64 64 63 62 60 59
60 61 61 60 59 59 60 60 61 61 62 62 63 64 65 65 66 66 70 67 68 69 67 67 67 66 66 67 67 67 66 65 66 66 66 66 66 65 64 63 61 60
60 59 60 59 59 59 60 61 61 61 61 62 63 64 65 65 66 66 66 67 67 65 67 66 64 64 65 67 68 68 67 67 67 67 67 66 67 67 66 66 64 61
59 60 60 60 60 60 60 60 60 61 61 61 62 63 65 66 66 65 67 67 65 64 63 63 62 62 61 63 68 67 66 65 65 65 66 66 65 66 67 66 64 62
59 62 62 61 61 60 60 60 60 61 62 63 64 64 64 66 66 66 67 64 64 63 62 61 59 57 56 56 61 67 66 65 64 65 64 64 66 65 65 66 65 63
62 62 62 61 61 61 61 61 61 62 62 64 65 65 65 66 66 65 65 64 63 62 61 58 57 56 49 44 47 58 65 65 64 64 64 63 63 64 64 64 64 64
63 63 62 61 62 62 62 62 63 63 63 64 63 64 64 64 64 63 63 63 62 61 60 58 56 53 42 42 44 43 60 64 63 62 63 63 62 62 62 62 63 64
62 63 63 62 63 64 64 65 64 64 63 64 62 61 62 63 62 62 62 62 61 61 59 58 56 44 41 43 43 43 48 63 63 62 62 62 62 62 62 62 62 62
64 63 63 63 64 65 66 66 62 62 62 61 61 61 62 61 61 61 61 61 61 60 59 58 57 42 41 42 42 43 43 55 64 62 62 61 61 61 61 61 61 61
65 66 64 64 65 64 62 62 62 61 61 61 61 61 61 60 60 60 60 60 60 60 58 57 55 43 40 41 41 41 43 53 63 62 61 60 60 60 59 60 60 59
65 65 66 68 66 62 62 62 60 61 61 61 61 61 61 60 60 59 59 60 60 59 58 56 52 39 40 40 41 41 42 53 62 61 61 60 59 59 59 59 59 59
64 63 63 63 62 62 61 61 60 60 60 60 61 61 61 61 61 61 60 60 59 59 58 56 53 39 40 40 40 40 43 63 62 61 60 60 60 59 58 57 58 59
63 63 62 62 62 61 61 60 59 59 60 62 60 60 60 59 59 60 60 59 59 59 57 56 55 44 39 40 41 39 49 63 62 62 61 60 59 60 58 56 54 55
63 63 62 61 62 61 60 59 60 61 61 62 60 60 59 60 60 59 59 59 58 57 58 56 55 46 39 40 40 39 47 62 62 61 60 60 59 60 60 58 54 45
62 61 62 62 61 60 60 59 60 60 61 61 61 61 60 61 61 59 58 58 58 56 52 55 55 50 40 40 39 40 48 62 62 62 60 59 60 59 60 59 58 53
60 61 61 61 61 60 60 60 61 61 61 61 61 62 61 61 60 59 58 58 58 57 56 56 55 53 46 39 39 41 39 56 63 61 59 59 59 60 58 58 58 58
MSLP
1019.51 1019.55 1019.79 1019.95 1020.15 1020.19 1020.23 1020.15 1020.19 1020.15 1020.23 1020.19 1020.15 1020.11 1020.07 1020.03 1020.03 1019.99 1019.95 1019.83 1019.75 1019.67 1019.55 1019.43 1019.23 1019.03 1018.71 1018.35 1018.23 1017.83 1017.51 1017.35 1017.11 1016.87 1016.75 1016.51 1016.39 1016.23 1016.07 1015.91 1015.63 1015.39
1019.75 1019.79 1019.87 1020.07 1020.23 1020.23 1020.35 1020.39 1020.39 1020.39 1020.47 1020.39 1020.31 1020.23 1020.19 1020.23 1020.19 1020.19 1020.27 1020.23 1019.99 1019.99 1019.87 1019.71 1019.43 1019.15 1018.87 1018.51 1018.35 1018.03 1017.75 1017.59 1017.47 1017.11 1016.99 1016.75 1016.51 1016.35 1016.27 1016.07 1015.87 1015.55
1020.03 1020.19 1020.31 1020.43 1020.43 1020.51 1020.55 1020.55 1020.55 1020.55 1020.51 1020.51 1020.47 1020.47 1020.51 1020.55 1020.59 1020.51 1020.43 1020.39 1020.19 1020.19 1020.11 1019.87 1019.59 1019.31 1019.11 1018.95 1018.59 1018.23 1018.03 1017.87 1017.75 1017.39 1017.19 1017.03 1016.87 1016.75 1016.59 1016.47 1016.27 1016.03
1020.31 1020.39 1020.43 1020.51 1020.59 1020.63 1020.63 1020.67 1020.67 1020.67 1020.67 1020.67 1020.75 1020.79 1020.79 1020.87 1020.79 1020.71 1020.59 1020.51 1020.43 1020.35 1020.19 1019.95 1019.71 1019.47 1019.27 1018.95 1018.63 1018.39 1018.23 1018.23 1018.23 1017.95 1017.75 1017.55 1017.47 1017.35 1017.19 1016.91 1016.71 1016.43
1020.51 1020.51 1020.47 1020.55 1020.59 1020.67 1020.71 1020.83 1020.95 1020.99 1020.91 1020.95 1021.07 1021.11 1021.07 1021.03 1020.95 1020.87 1020.71 1020.63 1020.55 1020.47 1020.23 1019.95 1019.75 1019.67 1019.43 1019.19 1019.03 1018.95 1018.91 1018.71 1018.55 1018.35 1018.15 1018.03 1017.79 1017.63 1017.47 1017.23 1016.99 1016.75
1020.55 1020.55 1020.59 1020.67 1020.75 1020.83 1020.95 1021.11 1021.15 1021.03 1021.07 1021.31 1021.47 1021.39 1021.31 1021.23 1021.19 1021.03 1020.95 1020.87 1020.67 1020.51 1020.23 1020.07 1019.95 1019.83 1019.63 1019.51 1019.39 1019.31 1019.27 1019.03 1018.91 1018.67 1018.51 1018.39 1018.15 1017.95 1017.79 1017.63 1017.39 1017.11
1020.79 1020.79 1020.87 1020.91 1020.99 1021.11 1021.23 1021.27 1021.31 1021.39 1021.51 1021.55 1021.59 1021.59 1021.47 1021.43 1021.35 1021.19 1020.87 1020.71 1020.51 1020.47 1020.31 1020.07 1019.99 1019.99 1019.87 1019.79 1019.67 1019.59 1019.55 1019.51 1019.27 1018.99 1018.87 1018.71 1018.51 1018.35 1018.11 1017.95 1017.79 1017.55
1020.95 1020.99 1020.99 1021.07 1021.19 1021.27 1021.43 1021.63 1021.71 1021.75 1021.67 1021.67 1021.79 1021.87 1021.75 1021.63 1021.39 1021.15 1020.83 1020.47 1020.43 1020.43 1020.31 1020.19 1020.11 1020.23 1020.23 1020.15 1020.11 1019.91 1019.79 1019.63 1019.43 1019.31 1019.19 1019.11 1018.95 1018.71 1018.51 1018.27 1018.07 1017.83
1020.99 1021.27 1021.43 1021.35 1021.35 1021.47 1021.75 1021.87 1021.95 1021.91 1021.87 1021.95 1021.95 1021.95 1021.91 1021.67 1021.43 1021.19 1021.07 1020.75 1020.75 1020.71 1020.75 1020.63 1020.47 1020.47 1020.55 1020.51 1020.43 1020.19 1019.95 1019.83 1019.75 1019.63 1019.63 1019.47 1019.19 1019.03 1018.91 1018.75 1018.51 1018.27
1021.47 1021.63 1021.51 1021.51 1021.75 1021.95 1022.11 1022.11 1022.11 1022.07 1022.07 1022.11 1022.07 1021.99 1021.91 1021.83 1021.59 1021.39 1021.15 1020.95 1020.91 1021.11 1021.03 1021.11 1020.95 1020.83 1020.79 1020.75 1020.67 1020.55 1020.31 1020.15 1019.95 1019.91 1019.87 1019.67 1019.43 1019.35 1019.31 1019.15 1019.07 1018.87
1021.71 1021.63 1021.67 1021.87 1022.07 1022.23 1022.39 1022.39 1022.31 1022.27 1022.23 1022.15 1022.15 1022.11 1022.07 1022.03 1021.87 1021.75 1021.43 1021.31 1021.35 1020.71 1021.31 1021.51 1021.39 1021.11 1020.99 1020.91 1020.75 1020.67 1020.55 1020.39 1020.19 1020.07 1019.91 1019.75 1019.63 1019.43 1019.39 1019.39 1019.55 1019.47
1021.83 1021.91 1021.99 1022.11 1022.39 1022.55 1022.59 1022.55 1022.51 1022.47 1022.47 1022.47 1022.43 1022.31 1022.27 1022.15 1022.19 1022.07 1021.47 1021.75 1021.79 1021.71 1021.83 1021.75 1021.59 1021.43 1021.39 1021.15 1020.95 1020.79 1020.67 1020.59 1020.35 1020.19 1020.03 1019.87 1019.67 1019.55 1019.51 1019.63 1019.75 1019.79
1021.99 1022.23 1022.23 1022.35 1022.55 1022.71 1022.75 1022.71 1022.71 1022.75 1022.75 1022.79 1022.71 1022.55 1022.43 1022.39 1022.43 1022.43 1022.35 1022.15 1022.19 1022.39 1022.07 1022.07 1022.15 1022.07 1021.87 1021.39 1021.11 1020.99 1020.91 1020.79 1020.55 1020.23 1020.19 1020.11 1019.99 1019.87 1019.71 1019.59 1019.75 1020.03
1022.19 1022.31 1022.31 1022.47 1022.67 1022.79 1022.87 1022.95 1022.95 1022.95 1023.03 1023.07 1022.95 1022.75 1022.63 1022.55 1022.55 1022.67 1022.51 1022.51 1022.71 1022.91 1022.99 1022.91 1022.87 1022.79 1022.71 1022.23 1021.43 1021.35 1021.27 1021.19 1021.03 1020.87 1020.63 1020.47 1020.39 1020.15 1019.91 1019.79 1019.95 1020.27
1022.23 1022.15 1022.27 1022.47 1022.67 1022.83 1022.95 1023.03 1023.03 1023.03 1022.99 1022.95 1022.95 1022.99 1023.03 1022.79 1022.83 1022.83 1022.75 1023.11 1023.19 1023.31 1023.39 1023.47 1023.47 1023.59 1023.67 1023.51 1022.59 1021.63 1021.59 1021.51 1021.39 1021.27 1021.11 1020.91 1020.63 1020.51 1020.39 1020.27 1020.15 1020.35
1022.07 1022.19 1022.31 1022.51 1022.71 1022.87 1022.91 1022.95 1023.03 1023.11 1023.11 1022.95 1022.95 1023.19 1023.23 1023.15 1023.23 1023.27 1023.23 1023.31 1023.47 1023.63 1023.83 1023.95 1024.07 1024.23 1024.51 1024.07 1023.59 1022.83 1021.95 1021.79 1021.71 1021.63 1021.51 1021.35 1021.19 1020.95 1020.79 1020.67 1020.59 1020.43
1021.91 1022.15 1022.27 1022.51 1022.67 1022.75 1022.83 1022.87 1022.95 1023.15 1023.23 1023.19 1023.47 1023.51 1023.55 1023.59 1023.59 1023.63 1023.67 1023.75 1023.83 1023.99 1024.15 1024.39 1024.67 1024.95 1024.91 1024.31 1023.83 1023.35 1022.47 1022.15 1022.07 1022.07 1021.91 1021.79 1021.63 1021.55 1021.39 1021.27 1021.07 1020.95
1021.99 1022.11 1022.27 1022.43 1022.55 1022.55 1022.63 1022.75 1022.87 1023.07 1023.47 1023.63 1023.79 1023.91 1023.91 1023.91 1023.95 1023.99 1024.07 1024.15 1024.19 1024.27 1024.43 1024.71 1025.03 1025.51 1025.07 1024.67 1024.23 1023.75 1023.19 1022.51 1022.47 1022.43 1022.39 1022.23 1022.15 1021.95 1021.87 1021.67 1021.51 1021.35
1021.87 1022.11 1022.35 1022.59 1022.55 1022.43 1022.51 1022.75 1023.47 1023.67 1023.83 1023.99 1024.15 1024.19 1024.19 1024.23 1024.31 1024.31 1024.35 1024.43 1024.51 1024.63 1024.83 1024.95 1025.15 1025.75 1025.39 1025.03 1024.63 1024.15 1023.63 1022.95 1022.83 1022.87 1022.79 1022.83 1022.67 1022.55 1022.39 1022.23 1021.99 1021.75
1021.67 1021.71 1022.27 1022.35 1022.27 1022.71 1023.27 1023.51 1023.67 1023.91 1024.11 1024.19 1024.31 1024.43 1024.47 1024.59 1024.63 1024.67 1024.71 1024.79 1024.87 1024.99 1025.15 1025.39 1025.67 1026.15 1025.79 1025.39 1024.95 1024.51 1023.99 1023.35 1023.19 1023.27 1023.35 1023.31 1023.27 1023.15 1022.99 1022.79 1022.55 1022.35
1021.91 1022.03 1022.11 1021.95 1022.43 1023.23 1023.47 1023.67 1023.95 1024.15 1024.27 1024.43 1024.51 1024.63 1024.71 1024.75 1024.91 1025.03 1025.11 1025.15 1025.19 1025.23 1025.35 1025.67 1026.27 1026.55 1026.03 1025.63 1025.19 1024.75 1024.31 1023.63 1023.55 1023.55 1023.55 1023.67 1023.79 1023.75 1023.63 1023.43 1023.15 1022.91
1021.95 1022.43 1022.79 1023.07 1023.23 1023.43 1023.59 1023.91 1024.19 1024.43 1024.59 1024.75 1024.83 1024.91 1024.99 1025.03 1025.11 1025.19 1025.31 1025.39 1025.47 1025.51 1025.59 1025.79 1026.31 1026.71 1026.27 1025.79 1025.39 1024.95 1024.39 1023.63 1023.75 1023.83 1023.87 1023.91 1023.99 1024.15 1024.19 1024.15 1023.91 1023.47
1022.11 1022.43 1022.79 1023.03 1023.27 1023.55 1023.87 1024.19 1024.43 1024.63 1024.75 1024.83 1024.99 1025.15 1025.27 1025.35 1025.43 1025.47 1025.51 1025.67 1025.75 1025.79 1025.91 1026.07 1026.31 1026.83 1026.59 1026.11 1025.67 1025.31 1024.51 1023.91 1023.95 1023.95 1024.11 1024.19 1024.19 1024.23 1024.47 1024.75 1024.87 1024.59
1022.31 1022.55 1022.87 1023.11 1023.39 1023.79 1024.15 1024.43 1024.55 1024.67 1024.87 1025.03 1025.15 1025.35 1025.47 1025.55 1025.59 1025.75 1025.95 1026.11 1026.23 1026.23 1026.23 1026.35 1026.51 1027.03 1026.91 1026.51 1026.15 1025.71 1025.11 1024.11 1024.15 1024.15 1024.27 1024.35 1024.39 1024.43 1024.47 1024.75 1025.31 1025.67
1022.59 1022.75 1022.95 1023.23 1023.67 1024.15 1024.39 1024.59 1024.79 1024.95 1025.11 1025.23 1025.35 1025.47 1025.59 1025.63 1025.75 1025.91 1026.15 1026.35 1026.59 1026.71 1026.83 1026.63 1026.75 1027.11 1027.35 1027.07 1026.59 1026.11 1025.55 1024.47 1024.39 1024.43 1024.55 1024.47 1024.39 1024.63 1024.67 1024.71 1024.95 1025.31
1023.03 1023.07 1023.23 1023.55 1024.03 1024.43 1024.63 1024.79 1024.95 1025.07 1025.23 1025.27 1025.35 1025.39 1025.63 1025.79 1025.91 1026.15 1026.31 1026.47 1026.67 1026.79 1026.91 1026.87 1027.07 1027.39 1027.87 1027.63 1027.15 1026.63 1026.19 1025.23 1024.59 1024.63 1024.79 1024.83 1024.83 1024.71 1024.79 1024.99 1025.03 1025.07
Wind_Speed
4 4 4 4 4 4 4 4 4 4 5 4 5 5 5 6 7 7 7 7 8 7 8 8 8 8 8 7 8 9 8 9 9 9 10 10 9 10 10 12 11 10
5 4 4 5 4 3 4 4 5 5 5 5 5 5 5 6 7 7 8 8 7 8 8 8 8 9 8 8 8 9 9 9 10 9 10 12 10 10 11 13 13 12
6 7 6 5 4 5 5 6 6 5 5 6 5 6 6 6 7 8 7 8 7 7 8 8 9 9 9 9 9 8 9 10 11 11 11 12 12 12 12 12 11 13
7 6 5 5 5 5 6 6 6 6 5 5 6 6 6 6 6 7 7 7 7 7 8 8 9 9 9 9 9 9 10 9 10 10 10 9 10 10 11 10 11 10
6 5 5 5 6 6 6 7 7 6 6 6 6 6 6 7 7 7 7 7 7 8 8 9 9 10 10 10 10 8 9 8 10 10 9 9 9 10 9 10 12 12
6 5 5 6 6 7 7 7 6 6 6 7 7 6 7 7 7 7 8 8 8 8 9 9 10 10 10 10 9 9 9 10 11 11 11 10 10 11 9 10 12 13
5 5 6 6 7 7 7 7 7 7 7 6 7 7 7 7 7 8 8 8 9 9 10 10 10 11 10 10 10 11 10 10 11 11 12 11 11 13 12 12 12 13
6 6 6 6 8 7 7 7 7 7 6 6 8 7 7 8 8 7 8 9 9 10 10 10 10 11 11 10 10 10 11 9 10 12 13 13 12 13 14 12 13 14
7 7 7 8 8 8 8 7 7 7 7 8 7 7 8 8 8 9 9 10 10 10 10 10 11 10 10 10 10 10 11 11 11 12 12 13 14 14 15 14 13 14
8 7 8 8 8 8 8 8 7 8 8 8 8 8 8 8 9 9 9 9 10 10 10 10 10 10 10 10 10 10 10 11 11 11 11 12 13 14 13 13 13 13
8 7 8 8 9 8 8 8 8 8 8 9 8 9 9 8 8 9 8 9 9 10 11 10 10 10 11 11 10 10 10 10 11 11 11 11 12 12 13 13 12 13
8 7 8 9 9 8 8 8 8 8 8 8 9 9 8 8 9 8 10 11 9 10 10 10 10 10 11 11 11 10 10 10 11 11 11 11 12 12 12 12 12 13
8 7 8 8 9 8 7 8 8 9 9 9 8 9 8 8 9 9 9 9 11 10 11 11 9 9 9 10 10 10 10 10 11 11 11 11 12 12 12 12 13 12
7 7 8 8 8 8 8 8 8 9 9 8 8 9 9 9 10 10 9 10 10 9 9 9 9 10 10 10 9 10 9 10 10 10 11 11 12 12 13 13 13 12
7 7 8 9 9 8 9 9 9 9 9 9 8 9 8 9 10 10 11 10 9 9 10 9 9 10 9 10 9 9 9 9 10 11 11 11 12 13 13 13 13 12
8 8 8 9 9 9 9 9 9 9 9 9 10 10 9 9 9 9 10 10 10 10 9 9 9 8 11 15 13 9 8 8 9 10 11 11 11 12 13 13 14 12
8 8 9 9 9 9 10 10 10 9 9 10 10 9 10 9 9 10 9 9 10 10 10 9 9 9 15 15 15 17 9 9 10 11 11 12 12 11 11 11 12 13
9 9 10 10 9 10 10 10 10 10 10 9 8 9 8 9 10 10 10 9 9 10 10 9 9 13 15 15 15 15 13 8 10 10 11 11 12 12 11 11 11 11
10 10 10 10 9 10 9 10 10 9 9 9 10 9 9 10 10 10 10 10 10 10 10 10 9 15 14 15 14 14 13 9 10 11 12 13 13 12 12 12 11 11
9 10 10 10 10 11 10 9 9 10 9 8 9 9 10 10 11 12 11 11 10 10 10 10 10 13 14 15 14 13 12 9 10 11 12 13 14 13 12 12 12 12
10 10 10 10 11 10 10 10 10 9 9 8 8 9 9 10 10 10 10 10 10 10 10 9 9 14 14 15 14 14 12 10 10 9 10 12 13 14 14 13 12 12
11 11 11 11 11 10 11 11 10 10 10 8 8 9 9 9 9 9 10 10 10 10 10 10 10 15 15 16 16 16 13 7 9 10 10 10 12 14 15 13 12 12
11 11 11 11 11 11 11 11 10 10 9 8 9 9 9 9 9 9 9 9 10 10 10 10 11 14 16 16 17 18 12 7 7 8 9 10 10 11 13 14 13 14
10 11 11 11 11 11 11 10 9 9 9 7 8 9 9 9 9 9 10 10 10 11 10 10 11 13 17 16 17 17 14 7 7 7 8 9 9 10 10 12 14 18
10 10 11 11 11 10 10 10 9 8 8 8 8 8 8 8 8 9 9 9 10 11 12 11 11 12 16 16 17 17 13 5 7 7 8 8 7 9 9 9 11 12
9 10 11 11 11 10 9 9 8 8 8 8 7 7 8 8 8 8 10 9 9 9 9 9 10 10 12 15 16 17 18 9 7 6 7 8 8 8 8 9 10 10
Wind_Direction
86 99 106 93 77 70 57 50 50 58 54 42 29 24 19 16 14 12 13 8 9 9 10 8 6 3 1 3 2 352 360 1 1 354 351 348 350 348 345 348 344 344
87 94 91 90 89 74 62 48 60 58 56 37 30 24 27 18 18 17 14 7 11 15 12 12 11 11 8 11 3 1 4 8 1 357 350 357 353 354 357 354 350 347
90 89 86 90 78 63 65 71 69 63 51 42 37 32 24 19 15 15 16 12 16 19 16 13 14 15 13 3 352 354 12 14 6 1 1 1 6 358 3 359 356 356
94 93 93 80 67 70 76 74 70 62 49 46 39 34 28 23 19 19 18 18 19 20 18 18 17 17 12 6 7 13 12 18 11 2 4 7 10 4 4 1 359 1
105 97 87 82 81 81 81 74 64 55 54 49 41 34 31 30 28 26 23 23 24 22 22 22 20 20 17 19 16 18 15 14 13 9 10 10 11 7 5 2 1 3
94 87 79 75 78 81 78 71 64 58 57 54 45 40 39 37 38 34 32 32 30 30 29 27 27 25 25 25 25 27 24 21 18 17 18 17 14 12 7 8 6 9
88 82 88 89 84 83 80 70 64 57 55 55 52 48 43 45 44 39 37 38 39 39 34 35 34 32 31 29 30 30 29 26 22 23 23 22 19 19 19 18 15 13
87 87 89 91 91 86 79 71 63 61 61 61 60 53 49 46 45 41 40 44 42 35 37 34 34 35 32 32 30 29 31 28 27 28 31 31 26 24 23 20 19 16
92 91 94 92 85 79 77 75 71 66 62 64 61 59 52 45 44 46 41 38 42 39 35 32 32 33 32 30 30 31 32 34 33 34 34 30 30 30 27 25 22 20
91 97 100 92 85 79 76 74 71 69 68 67 63 56 55 50 46 46 44 39 41 41 40 35 33 34 34 33 34 32 33 34 36 38 36 34 35 34 30 26 23 21
99 97 94 88 84 80 77 75 73 72 67 64 62 59 55 53 50 47 54 54 40 33 41 39 38 38 41 40 40 40 41 42 39 37 37 36 32 33 37 33 29 25
102 97 92 88 85 82 78 76 75 72 70 64 59 61 58 57 56 48 31 46 46 48 46 46 47 47 43 41 44 46 48 45 43 43 41 39 37 37 40 40 36 33
96 93 92 89 87 85 83 81 77 73 69 66 62 62 62 62 61 62 61 56 55 53 49 47 37 25 25 38 44 43 40 36 40 40 42 40 37 36 36 38 41 37
101 103 99 94 93 90 86 82 78 76 73 71 67 66 66 67 67 69 70 65 59 50 45 37 32 27 17 5 32 41 37 34 33 34 40 40 39 37 36 38 42 41
110 105 103 102 99 97 93 88 83 79 78 78 79 77 71 70 76 70 69 68 59 52 48 42 39 31 22 5 0 33 40 40 37 37 35 38 40 42 41 39 41 46
115 110 106 103 102 99 94 90 87 84 83 83 81 80 78 78 78 70 69 66 64 59 53 47 41 34 359 358 4 355 35 41 44 39 37 37 37 42 42 39 39 36
115 109 107 105 105 102 99 97 94 93 91 88 85 83 82 81 74 71 68 66 66 64 58 55 44 19 355 9 3 359 6 50 46 43 41 39 38 37 36 35 32 29
116 112 108 107 107 106 103 100 99 97 92 91 86 81 78 79 75 73 73 70 68 67 63 58 50 9 4 6 3 1 355 38 51 49 42 40 39 36 35 32 30 30
119 115 109 109 107 102 100 98 94 98 93 88 84 83 84 79 77 76 75 72 69 67 63 56 49 11 3 2 360 356 355 27 58 51 48 45 39 37 35 32 30 28
121 118 114 116 113 103 105 105 100 93 94 92 93 89 85 83 80 78 77 73 71 73 67 56 42 2 2 1 358 352 349 37 60 59 55 49 44 38 33 32 31 31
119 116 118 112 107 107 106 103 100 100 97 96 93 89 87 87 83 80 78 76 75 71 68 59 39 6 7 2 358 354 337 54 56 59 60 56 50 43 38 32 32 34
122 119 119 120 119 115 109 104 101 99 98 97 96 92 89 88 85 83 81 78 74 70 68 61 43 16 7 6 359 356 328 61 59 59 58 57 57 53 45 38 30 30
122 120 117 117 115 112 109 106 106 104 102 102 99 96 93 87 85 80 77 75 72 71 68 61 48 19 11 10 2 358 343 66 59 62 61 56 55 59 56 49 38 25
120 119 118 116 114 112 110 109 107 104 105 105 101 102 96 92 91 85 79 72 67 66 63 64 53 26 16 10 3 2 341 55 59 62 63 62 61 57 61 60 51 39
117 116 116 114 112 111 112 112 108 106 108 106 104 102 100 99 93 90 86 80 75 73 62 60 57 37 18 9 6 5 355 41 57 67 54 53 64 64 58 55 58 50
113 114 114 114 113 113 112 109 111 112 111 112 109 105 103 99 96 90 87 83 78 70 63 59 59 49 26 11 15 8 2 358 66 58 60 63 54 56 60 58 53 52